User: anonymous   Login
Location: Caltech
(34.1382°N, 118.1253°W)
Time: 05:54:09
(UTC-08:00)
Language:

ADEOS II - Orbit

View from above orbital plane
View from above orbital plane
View from above satellite
View from above satellite

Ground track
Ground track

The orbit data is extracted from the following two-line orbital elements,

1 27597U 02056A   17053.50276819  .00000076  00000-0  48044-4 0  9994
2 27597  98.3553  28.0220 0000812  32.5350 327.5881 14.27268423739066
Epoch (UTC): 22 February 2017 12:03:59
Eccentricity: 0.0000812
inclination: 98.3553°
perigee height: 800 km
apogee height: 801 km
right ascension of ascending node: 28.0220°
argument of perigee: 32.5350°
revolutions per day: 14.27268423
mean anomaly at epoch: 327.5881°
orbit number at epoch: 73906

The dashed part of the orbit path shows where the satellite is in the earth's shadow,  

DLR